Weather History for Yankton, SD

Change the Weather History Date:

Thursday, February 14, 2013

  Actual Average Record
Temperature  
Mean Temperature 28 °F -  
Max Temperature 39 °F 33 °F 68 °F (1954)
Min Temperature 15 °F 13 °F -14 °F (2007)
Degree Days  
Heating Degree Days 37    
Moisture  
Dew Point 24 °F    
Average Humidity 76    
Maximum Humidity 87    
Minimum Humidity 59    
Precipitation  
Precipitation 0.00 in - - ()
Sea Level Pressure  
Sea Level Pressure 30.02 in    
Wind  
Wind Speed 17 mph (WNW)    
Max Wind Speed 29 mph    
Max Gust Speed 37 mph    
Visibility 10 miles    
Events      
Averages and records for this station are not official NWS values.
T = Trace of Precipitation, MM = Missing Value Source: NWS Daily Summary

Daily Weather History Graph

Daily Weather History Graph

Search for Another Location

Airport:

Trip Planner

Search our weather history database for the weather conditions in past years. The results will help you decide how hot, cold, wet, or windy it might be!

Date:

Astronomy

Feb. 14, 2013 Rise Set
Actual Time 7:27 AM CST 6:00 PM CST
Civil Twilight 6:58 AM CST 6:29 PM CST
Nautical Twilight 6:25 AM CST 7:02 PM CST
Astronomical Twilight 5:52 AM CST 7:35 PM CST
Moon 9:22 AM CST (2/14) 11:13 PM CST (2/14)
Length of Visible Light 11h 30m
Length of Day
10h 32m
Waxing Crescent, 22% of the Moon is Illuminated
Feb 14
Waxing Crescent
Feb 17
First Quarter
Feb 25
Full
Mar 4
Last Quarter
Mar 11
New

Hourly Weather History & Observations

Time (CST) Temp. Windchill Dew Point Humidity Pressure Visibility Wind Dir Wind Speed Gust Speed Precip Events Conditions
12:15 AM 37.4 °F 27.8 °F 30.2 °F 75% 29.78 in 10.0 mi WNW 17.3 mph - N/A   Mostly Cloudy
12:35 AM 35.6 °F 25.5 °F 30.2 °F 81% 29.79 in 10.0 mi WNW 17.3 mph - N/A   Scattered Clouds
12:55 AM 35.6 °F 25.5 °F 30.2 °F 81% 29.80 in 10.0 mi WNW 17.3 mph - N/A   Mostly Cloudy
1:15 AM 35.6 °F 25.9 °F 30.2 °F 81% 29.81 in 10.0 mi West 16.1 mph 21.9 mph N/A   Overcast
1:35 AM 35.6 °F 25.5 °F 30.2 °F 81% 29.81 in 10.0 mi WNW 17.3 mph 21.9 mph N/A   Overcast
1:55 AM 35.6 °F 25.5 °F 30.2 °F 81% 29.82 in 10.0 mi WNW 17.3 mph - N/A   Scattered Clouds
2:15 AM 33.8 °F 24.3 °F 30.2 °F 87% 29.83 in 10.0 mi WNW 13.8 mph - N/A   Clear
2:35 AM 33.8 °F 23.5 °F 28.4 °F 81% 29.84 in 10.0 mi WNW 16.1 mph - N/A   Clear
2:55 AM 33.8 °F 24.3 °F 28.4 °F 81% 29.85 in 10.0 mi WNW 13.8 mph - N/A   Clear
3:15 AM 33.8 °F 23.9 °F 28.4 °F 81% 29.86 in 10.0 mi WNW 15.0 mph - N/A   Clear
3:35 AM 33.8 °F 23.9 °F 28.4 °F 81% 29.87 in 10.0 mi WNW 15.0 mph - N/A   Scattered Clouds
3:55 AM 33.8 °F 24.8 °F 28.4 °F 81% 29.86 in 10.0 mi WNW 12.7 mph - N/A   Overcast
4:15 AM 33.8 °F 25.8 °F 30.2 °F 87% 29.87 in 10.0 mi WNW 10.4 mph - N/A   Overcast
4:35 AM 33.8 °F 25.8 °F 28.4 °F 81% 29.86 in 10.0 mi WNW 10.4 mph - N/A   Overcast
4:55 AM 33.8 °F 25.8 °F 28.4 °F 81% 29.87 in 10.0 mi WNW 10.4 mph - N/A   Overcast
5:15 AM 33.8 °F 27.0 °F 28.4 °F 81% 29.87 in 10.0 mi WNW 8.1 mph - N/A   Overcast
5:35 AM 33.8 °F 27.7 °F 30.2 °F 87% 29.88 in 10.0 mi West 6.9 mph - N/A   Overcast
5:55 AM 33.8 °F 27.0 °F 28.4 °F 81% 29.89 in 10.0 mi West 8.1 mph - N/A   Overcast
6:15 AM 33.8 °F 28.6 °F 28.4 °F 81% 29.89 in 10.0 mi WSW 5.8 mph - N/A   Scattered Clouds
6:35 AM 32.0 °F 24.8 °F 28.4 °F 87% 29.89 in 10.0 mi West 8.1 mph - N/A   Clear
6:55 AM 33.8 °F 24.8 °F 28.4 °F 81% 29.89 in 10.0 mi West 12.7 mph - N/A   Clear
7:15 AM 33.8 °F 23.5 °F 28.4 °F 81% 29.89 in 10.0 mi West 16.1 mph - N/A   Clear
7:35 AM 33.8 °F 23.5 °F 28.4 °F 81% 29.90 in 10.0 mi West 16.1 mph 24.2 mph N/A   Partly Cloudy
7:55 AM 33.8 °F 23.5 °F 28.4 °F 81% 29.91 in 10.0 mi West 16.1 mph 20.7 mph N/A   Clear
8:15 AM 33.8 °F 23.5 °F 28.4 °F 81% 29.92 in 10.0 mi West 16.1 mph - N/A   Clear
8:35 AM 35.6 °F 25.9 °F 26.6 °F 70% 29.92 in 10.0 mi West 16.1 mph 21.9 mph N/A   Clear
8:55 AM 35.6 °F 25.5 °F 26.6 °F 70% 29.93 in 10.0 mi West 17.3 mph 23.0 mph N/A   Clear
9:15 AM 35.6 °F 24.2 °F 24.8 °F 65% 29.93 in 10.0 mi West 21.9 mph 25.3 mph N/A   Mostly Cloudy
9:35 AM 35.6 °F 24.8 °F 26.6 °F 70% 29.94 in 10.0 mi West 19.6 mph - N/A   Scattered Clouds
9:55 AM 37.4 °F 27.2 °F 26.6 °F 65% 29.94 in 10.0 mi West 19.6 mph 27.6 mph N/A   Clear
10:15 AM 35.6 °F 24.5 °F 24.8 °F 65% 29.95 in 10.0 mi WNW 20.7 mph 28.8 mph N/A   Partly Cloudy
10:35 AM 37.4 °F 26.6 °F 26.6 °F 65% 29.95 in 10.0 mi WNW 21.9 mph 28.8 mph N/A   Mostly Cloudy
10:55 AM 37.4 °F 26.6 °F 26.6 °F 65% 29.96 in 10.0 mi WNW 21.9 mph 29.9 mph N/A   Mostly Cloudy
11:15 AM 37.4 °F 26.6 °F 26.6 °F 65% 29.96 in 10.0 mi WNW 21.9 mph 33.4 mph N/A   Clear
11:35 AM 37.4 °F 25.2 °F 26.6 °F 65% 29.97 in 10.0 mi WNW 28.8 mph 36.8 mph N/A   Partly Cloudy
11:55 AM 39.2 °F 28.0 °F 28.4 °F 65% 29.97 in 10.0 mi WNW 26.5 mph 34.5 mph N/A   Partly Cloudy
12:15 PM 39.2 °F 28.0 °F 28.4 °F 65% 29.97 in 10.0 mi WNW 26.5 mph 36.8 mph N/A   Partly Cloudy
12:35 PM 39.2 °F 27.6 °F 26.6 °F 61% 29.97 in 10.0 mi WNW 28.8 mph 36.8 mph N/A   Scattered Clouds
12:55 PM 39.2 °F 28.5 °F 28.4 °F 65% 29.98 in 10.0 mi WNW 24.2 mph 33.4 mph N/A   Mostly Cloudy
1:15 PM 37.4 °F 26.1 °F 26.6 °F 65% 29.99 in 10.0 mi NW 24.2 mph 32.2 mph N/A   Mostly Cloudy
1:35 PM 37.4 °F 27.2 °F 26.6 °F 65% 30.00 in 10.0 mi WNW 19.6 mph 35.7 mph N/A   Overcast
1:55 PM 37.4 °F 26.1 °F 26.6 °F 65% 30.00 in 10.0 mi NW 24.2 mph 29.9 mph N/A   Overcast
2:15 PM 37.4 °F 26.6 °F 26.6 °F 65% 30.00 in 10.0 mi WNW 21.9 mph 27.6 mph N/A   Overcast
2:35 PM 37.4 °F 27.5 °F 28.4 °F 70% 30.01 in 10.0 mi WNW 18.4 mph - N/A   Overcast
2:55 PM 35.6 °F 24.8 °F 26.6 °F 70% 30.02 in 10.0 mi WNW 19.6 mph - N/A   Mostly Cloudy
3:15 PM 35.6 °F 25.5 °F 28.4 °F 75% 30.02 in 10.0 mi WNW 17.3 mph 20.7 mph N/A   Mostly Cloudy
3:35 PM 33.8 °F 24.8 °F 28.4 °F 81% 30.05 in 4.0 mi North 12.7 mph - N/A   Overcast
3:55 PM 30.2 °F 17.8 °F 26.6 °F 86% 30.07 in 2.5 mi North 19.6 mph - N/A   Overcast
4:15 PM 30.2 °F 17.4 °F 26.6 °F 86% 30.09 in 1.2 mi North 20.7 mph - N/A   Overcast
4:35 PM 28.4 °F 15.1 °F 24.8 °F 86% 30.11 in 9.0 mi North 20.7 mph 26.5 mph N/A   Mostly Cloudy
4:55 PM 28.4 °F 15.1 °F 21.2 °F 74% 30.13 in 7.0 mi North 20.7 mph 26.5 mph N/A   Mostly Cloudy
5:15 PM 28.4 °F 14.1 °F 15.8 °F 59% 30.15 in 10.0 mi NNW 24.2 mph 29.9 mph N/A   Scattered Clouds
5:35 PM 26.6 °F 11.4 °F 17.6 °F 69% 30.17 in 10.0 mi NNW 25.3 mph 34.5 mph N/A   Clear
5:55 PM 24.8 °F 9.6 °F 19.4 °F 80% 30.19 in 10.0 mi NW 23.0 mph 32.2 mph N/A   Clear
6:15 PM 24.8 °F 9.0 °F 17.6 °F 74% 30.21 in 10.0 mi NW 25.3 mph 28.8 mph N/A   Partly Cloudy
6:35 PM 21.2 °F 3.9 °F 17.6 °F 86% 30.23 in 10.0 mi NW 26.5 mph 32.2 mph N/A   Partly Cloudy
6:55 PM 21.2 °F 4.5 °F 14.0 °F 74% 30.24 in 10.0 mi NW 24.2 mph - N/A   Clear
7:15 PM 21.2 °F 6.8 °F 14.0 °F 74% 30.25 in 10.0 mi NW 17.3 mph 28.8 mph N/A   Clear
7:35 PM 21.2 °F 5.6 °F 14.0 °F 74% 30.26 in 10.0 mi NW 20.7 mph 26.5 mph N/A   Clear
7:55 PM 19.4 °F 3.2 °F 12.2 °F 74% 30.27 in 10.0 mi NW 20.7 mph 27.6 mph N/A   Clear
8:15 PM 19.4 °F 3.2 °F 12.2 °F 74% 30.27 in 10.0 mi NW 20.7 mph 27.6 mph N/A   Clear
8:35 PM 19.4 °F 3.2 °F 14.0 °F 80% 30.27 in 10.0 mi NW 20.7 mph 26.5 mph N/A   Partly Cloudy
8:55 PM 19.4 °F 4.5 °F 12.2 °F 74% 30.28 in 10.0 mi NW 17.3 mph 27.6 mph N/A   Partly Cloudy
9:15 PM 19.4 °F 4.1 °F 12.2 °F 74% 30.28 in 10.0 mi NW 18.4 mph 21.9 mph N/A   Clear
9:35 PM 19.4 °F 5.0 °F 14.0 °F 80% 30.29 in 10.0 mi NW 16.1 mph 20.7 mph N/A   Clear
9:55 PM 17.6 °F 2.7 °F 14.0 °F 86% 30.29 in 10.0 mi NW 16.1 mph 21.9 mph N/A   Clear
10:15 PM 17.6 °F 2.7 °F 14.0 °F 86% 30.29 in 10.0 mi NW 16.1 mph - N/A   Clear
10:35 PM 17.6 °F 2.7 °F 14.0 °F 86% 30.29 in 10.0 mi NW 16.1 mph - N/A   Clear
10:55 PM 17.6 °F 1.7 °F 12.2 °F 79% 30.29 in 10.0 mi NW 18.4 mph 21.9 mph N/A   Clear
11:15 PM 17.6 °F 3.7 °F 12.2 °F 79% 30.29 in 10.0 mi NW 13.8 mph - N/A   Clear
11:35 PM 17.6 °F 5.0 °F 10.4 °F 73% 30.29 in 10.0 mi WNW 11.5 mph - N/A   Clear
11:55 PM 15.8 °F 2.1 °F 10.4 °F 79% 30.29 in 10.0 mi WNW 12.7 mph - N/A   Clear